Location: Bern�tre
(50.1974°N, 2.0915°E)
Time: 22:25:26
(UTC+00:00)

Landsat 7 - Pass Details

Date: 18 September 2020
Orbit: 701 x 703 km, 98.1° (Epoch: 31 October)

Event Time Altitude Azimuth Distance (km) Brightness Sun altitude
Exits shadow 21:04:38 65° 293° (WNW) 774 4.1 -28.0°
Drops below altitude 10° 21:09:01 10° 342° (NNW) 2,184 7.1 -28.5°
Sets 21:11:18 0° 345° (NNW) 3,107 8.0 -28.8°
